Time,TemperatureF,DewpointF,PressureIn,WindDirection,WindDirectionDegrees,WindSpeedMPH,WindSpeedGustMPH,Humidity,HourlyPrecipIn,Conditions,Clouds,dailyrainin,SoftwareType,DateUTC
2013-10-25 00:01:00,35.6,15.3,0.00,North,353,0.0,0.0,43,0.00,,,0.00,VWS V13.01,2013-10-25 05:01:00,
2013-10-25 00:06:00,35.2,15.0,0.00,North,353,0.0,0.0,43,0.00,,,0.00,VWS V13.01,2013-10-25 05:06:00,
2013-10-25 00:11:00,35.2,15.0,0.00,North,353,0.0,0.0,43,0.00,,,0.00,VWS V13.01,2013-10-25 05:11:00,
2013-10-25 00:16:00,35.1,14.8,0.00,North,353,0.0,0.0,43,0.00,,,0.00,VWS V13.01,2013-10-25 05:16:00,
2013-10-25 00:21:00,34.7,14.5,0.00,North,353,0.0,0.0,43,0.00,,,0.00,VWS V13.01,2013-10-25 05:21:00,
2013-10-25 00:26:00,34.5,14.3,0.00,North,353,0.0,0.0,43,0.00,,,0.00,VWS V13.01,2013-10-25 05:26:00,
2013-10-25 00:31:00,34.3,14.2,0.00,North,353,0.0,0.0,43,0.00,,,0.00,VWS V13.01,2013-10-25 05:31:00,
2013-10-25 00:36:00,34.3,14.2,0.00,North,353,0.0,0.0,43,0.00,,,0.00,VWS V13.01,2013-10-25 05:36:00,
2013-10-25 00:41:00,34.3,14.2,0.00,North,353,0.0,0.0,43,0.00,,,0.00,VWS V13.01,2013-10-25 05:41:00,
2013-10-25 00:46:00,34.3,14.2,0.00,North,353,0.0,0.0,43,0.00,,,0.00,VWS V13.01,2013-10-25 05:46:00,
2013-10-25 00:51:00,34.3,14.7,0.00,North,353,0.0,0.0,44,0.00,,,0.00,VWS V13.01,2013-10-25 05:51:00,
2013-10-25 00:56:00,34.3,14.7,0.00,North,353,0.0,0.0,44,0.00,,,0.00,VWS V13.01,2013-10-25 05:56:00,
2013-10-25 01:01:00,34.3,14.7,0.00,North,353,0.0,0.0,44,0.00,,,0.00,VWS V13.01,2013-10-25 06:01:00,
2013-10-25 01:06:00,34.3,14.7,0.00,North,353,0.0,0.0,44,0.00,,,0.00,VWS V13.01,2013-10-25 06:06:00,
2013-10-25 01:11:00,34.3,14.7,0.00,North,353,0.0,0.0,44,0.00,,,0.00,VWS V13.01,2013-10-25 06:11:00,
2013-10-25 01:16:00,34.3,14.7,0.00,North,353,0.0,0.0,44,0.00,,,0.00,VWS V13.01,2013-10-25 06:16:00,
2013-10-25 01:21:00,34.2,14.5,0.00,North,353,0.0,0.0,44,0.00,,,0.00,VWS V13.01,2013-10-25 06:21:00,
2013-10-25 01:26:00,34.0,14.4,0.00,North,353,0.0,0.0,44,0.00,,,0.00,VWS V13.01,2013-10-25 06:26:00,
2013-10-25 01:31:00,34.0,14.4,0.00,North,353,0.0,0.0,44,0.00,,,0.00,VWS V13.01,2013-10-25 06:31:00,
2013-10-25 01:36:00,34.0,14.4,0.00,North,353,0.0,0.0,44,0.00,,,0.00,VWS V13.01,2013-10-25 06:36:00,
2013-10-25 01:41:00,34.0,14.9,0.00,North,353,0.0,0.0,45,0.00,,,0.00,VWS V13.01,2013-10-25 06:41:00,
2013-10-25 01:46:00,34.0,14.9,0.00,North,353,0.0,0.0,45,0.00,,,0.00,VWS V13.01,2013-10-25 06:46:00,
2013-10-25 01:51:00,34.0,14.9,0.00,North,353,0.0,0.0,45,0.00,,,0.00,VWS V13.01,2013-10-25 06:51:00,
2013-10-25 01:56:00,34.0,14.9,0.00,North,353,0.0,0.0,45,0.00,,,0.00,VWS V13.01,2013-10-25 06:56:00,
2013-10-25 02:01:00,34.0,14.9,0.00,North,353,0.0,0.0,45,0.00,,,0.00,VWS V13.01,2013-10-25 07:01:00,
2013-10-25 02:06:00,34.0,14.9,0.00,North,353,0.0,0.0,45,0.00,,,0.00,VWS V13.01,2013-10-25 07:06:00,
2013-10-25 02:11:00,34.0,14.9,0.00,North,353,0.0,0.0,45,0.00,,,0.00,VWS V13.01,2013-10-25 07:11:00,
2013-10-25 02:16:00,34.0,14.9,0.00,North,353,0.0,0.0,45,0.00,,,0.00,VWS V13.01,2013-10-25 07:16:00,
2013-10-25 02:21:00,34.0,15.4,0.00,North,353,0.0,0.0,46,0.00,,,0.00,VWS V13.01,2013-10-25 07:21:00,
2013-10-25 02:26:00,34.0,15.4,0.00,North,353,0.0,0.0,46,0.00,,,0.00,VWS V13.01,2013-10-25 07:26:00,
2013-10-25 02:31:00,34.0,15.4,0.00,North,353,0.0,0.0,46,0.00,,,0.00,VWS V13.01,2013-10-25 07:31:00,
2013-10-25 02:36:00,33.8,15.2,0.00,North,353,0.0,0.0,46,0.00,,,0.00,VWS V13.01,2013-10-25 07:36:00,
2013-10-25 02:41:00,33.8,15.2,0.00,North,353,0.0,0.0,46,0.00,,,0.00,VWS V13.01,2013-10-25 07:41:00,
2013-10-25 02:46:00,33.8,15.2,0.00,North,353,0.0,0.0,46,0.00,,,0.00,VWS V13.01,2013-10-25 07:46:00,
2013-10-25 02:51:00,33.8,15.2,0.00,North,353,0.0,0.0,46,0.00,,,0.00,VWS V13.01,2013-10-25 07:51:00,
2013-10-25 02:56:00,33.8,15.7,0.00,North,353,0.0,0.0,47,0.00,,,0.00,VWS V13.01,2013-10-25 07:56:00,
2013-10-25 03:01:00,33.8,15.7,0.00,North,353,0.0,0.0,47,0.00,,,0.00,VWS V13.01,2013-10-25 08:01:00,
2013-10-25 03:06:00,33.8,15.7,0.00,North,353,0.0,0.0,47,0.00,,,0.00,VWS V13.01,2013-10-25 08:06:00,
2013-10-25 03:11:00,33.8,15.7,0.00,North,353,0.0,0.0,47,0.00,,,0.00,VWS V13.01,2013-10-25 08:11:00,
2013-10-25 03:16:00,33.8,15.7,0.00,North,353,0.0,0.0,47,0.00,,,0.00,VWS V13.01,2013-10-25 08:16:00,
2013-10-25 03:21:00,33.6,15.6,0.00,North,353,0.0,0.0,47,0.00,,,0.00,VWS V13.01,2013-10-25 08:21:00,
2013-10-25 03:26:00,33.6,16.0,0.00,North,353,0.0,0.0,48,0.00,,,0.00,VWS V13.01,2013-10-25 08:26:00,
2013-10-25 03:31:00,33.6,16.0,0.00,North,353,0.0,0.0,48,0.00,,,0.00,VWS V13.01,2013-10-25 08:31:00,
2013-10-25 03:36:00,33.4,15.9,0.00,North,353,0.0,0.0,48,0.00,,,0.00,VWS V13.01,2013-10-25 08:36:00,
2013-10-25 03:41:00,33.4,15.9,0.00,North,353,0.0,0.0,48,0.00,,,0.00,VWS V13.01,2013-10-25 08:41:00,
2013-10-25 03:46:00,33.6,16.0,0.00,North,353,0.0,0.0,48,0.00,,,0.00,VWS V13.01,2013-10-25 08:46:00,
2013-10-25 03:51:00,33.6,16.5,0.00,North,353,0.0,0.0,49,0.00,,,0.00,VWS V13.01,2013-10-25 08:51:00,
2013-10-25 03:56:00,33.6,16.5,0.00,North,353,0.0,0.0,49,0.00,,,0.00,VWS V13.01,2013-10-25 08:56:00,
2013-10-25 04:01:00,33.6,16.5,0.00,North,353,0.0,0.0,49,0.00,,,0.00,VWS V13.01,2013-10-25 09:01:00,
2013-10-25 04:06:00,33.6,16.5,0.00,North,353,0.0,0.0,49,0.00,,,0.00,VWS V13.01,2013-10-25 09:06:00,
2013-10-25 04:11:00,33.6,16.5,0.00,North,353,0.0,0.0,49,0.00,,,0.00,VWS V13.01,2013-10-25 09:11:00,
2013-10-25 04:16:00,33.6,16.5,0.00,North,353,0.0,0.0,49,0.00,,,0.00,VWS V13.01,2013-10-25 09:16:00,
2013-10-25 04:21:00,33.6,16.5,0.00,North,353,0.0,0.0,49,0.00,,,0.00,VWS V13.01,2013-10-25 09:21:00,
2013-10-25 04:26:00,33.6,16.5,0.00,North,353,0.0,0.0,49,0.00,,,0.00,VWS V13.01,2013-10-25 09:26:00,
2013-10-25 04:31:00,33.8,16.7,0.00,North,353,0.0,0.0,49,0.00,,,0.00,VWS V13.01,2013-10-25 09:31:00,
2013-10-25 04:36:00,33.6,16.5,0.00,North,353,0.0,0.0,49,0.00,,,0.00,VWS V13.01,2013-10-25 09:36:00,
2013-10-25 04:41:00,33.6,16.5,0.00,North,353,0.0,0.0,49,0.00,,,0.00,VWS V13.01,2013-10-25 09:41:00,
2013-10-25 04:46:00,33.8,16.7,0.00,North,353,0.0,0.0,49,0.00,,,0.00,VWS V13.01,2013-10-25 09:46:00,
2013-10-25 04:51:00,33.8,16.7,0.00,North,353,0.0,0.0,49,0.00,,,0.00,VWS V13.01,2013-10-25 09:51:00,
2013-10-25 04:56:00,33.8,16.7,0.00,North,353,0.0,0.0,49,0.00,,,0.00,VWS V13.01,2013-10-25 09:56:00,
2013-10-25 05:01:00,33.8,16.7,0.00,North,353,0.0,0.0,49,0.00,,,0.00,VWS V13.01,2013-10-25 10:01:00,
2013-10-25 05:06:00,33.8,16.7,0.00,North,353,0.0,0.0,49,0.00,,,0.00,VWS V13.01,2013-10-25 10:06:00,
2013-10-25 05:11:00,33.8,16.7,0.00,North,353,0.0,0.0,49,0.00,,,0.00,VWS V13.01,2013-10-25 10:11:00,
2013-10-25 05:16:00,33.8,16.7,0.00,North,353,0.0,0.0,49,0.00,,,0.00,VWS V13.01,2013-10-25 10:16:00,
2013-10-25 05:21:00,33.8,16.7,0.00,North,353,0.0,0.0,49,0.00,,,0.00,VWS V13.01,2013-10-25 10:21:00,
2013-10-25 05:26:00,33.6,16.5,0.00,North,353,0.0,0.0,49,0.00,,,0.00,VWS V13.01,2013-10-25 10:26:00,
2013-10-25 05:31:00,33.6,16.5,0.00,North,353,0.0,0.0,49,0.00,,,0.00,VWS V13.01,2013-10-25 10:31:00,
2013-10-25 05:36:00,33.6,16.5,0.00,North,353,0.0,0.0,49,0.00,,,0.00,VWS V13.01,2013-10-25 10:36:00,
2013-10-25 05:41:00,33.6,16.5,0.00,North,353,0.0,0.0,49,0.00,,,0.00,VWS V13.01,2013-10-25 10:41:00,
2013-10-25 05:46:00,33.6,16.5,0.00,North,353,0.0,0.0,49,0.00,,,0.00,VWS V13.01,2013-10-25 10:46:00,
2013-10-25 05:51:00,33.6,16.5,0.00,North,353,0.0,0.0,49,0.00,,,0.00,VWS V13.01,2013-10-25 10:51:00,
2013-10-25 05:56:00,33.6,16.5,0.00,North,353,0.0,0.0,49,0.00,,,0.00,VWS V13.01,2013-10-25 10:56:00,
2013-10-25 06:01:00,33.6,16.5,0.00,North,353,0.0,0.0,49,0.00,,,0.00,VWS V13.01,2013-10-25 11:01:00,
2013-10-25 06:06:00,33.6,16.5,0.00,North,353,0.0,0.0,49,0.00,,,0.00,VWS V13.01,2013-10-25 11:06:00,
2013-10-25 06:11:00,33.6,16.5,0.00,North,353,0.0,0.0,49,0.00,,,0.00,VWS V13.01,2013-10-25 11:11:00,
2013-10-25 06:16:00,33.6,16.5,0.00,North,353,0.0,0.0,49,0.00,,,0.00,VWS V13.01,2013-10-25 11:16:00,
2013-10-25 06:21:00,33.4,16.4,0.00,North,353,0.0,0.0,49,0.00,,,0.00,VWS V13.01,2013-10-25 11:21:00,
2013-10-25 06:26:00,33.4,16.4,0.00,North,353,0.0,0.0,49,0.00,,,0.00,VWS V13.01,2013-10-25 11:26:00,
2013-10-25 06:31:00,33.4,16.4,0.00,North,353,0.0,0.0,49,0.00,,,0.00,VWS V13.01,2013-10-25 11:31:00,
2013-10-25 06:36:00,33.4,16.8,0.00,North,353,0.0,0.0,50,0.00,,,0.00,VWS V13.01,2013-10-25 11:36:00,
2013-10-25 06:41:00,33.4,16.8,0.00,North,353,0.0,0.0,50,0.00,,,0.00,VWS V13.01,2013-10-25 11:41:00,
2013-10-25 06:46:00,33.6,17.0,0.00,North,353,0.0,0.0,50,0.00,,,0.00,VWS V13.01,2013-10-25 11:46:00,
2013-10-25 06:51:00,33.4,16.8,0.00,North,353,0.0,0.0,50,0.00,,,0.00,VWS V13.01,2013-10-25 11:51:00,
2013-10-25 06:56:00,33.4,16.8,0.00,North,353,0.0,0.0,50,0.00,,,0.00,VWS V13.01,2013-10-25 11:56:00,
2013-10-25 07:01:00,33.3,16.6,0.00,North,353,0.0,0.0,50,0.00,,,0.00,VWS V13.01,2013-10-25 12:01:00,
2013-10-25 07:06:00,33.3,16.6,0.00,North,353,0.0,0.0,50,0.00,,,0.00,VWS V13.01,2013-10-25 12:06:00,
2013-10-25 07:11:00,33.1,16.5,0.00,North,353,0.0,0.0,50,0.00,,,0.00,VWS V13.01,2013-10-25 12:11:00,
2013-10-25 07:16:00,33.1,16.5,0.00,North,353,0.0,0.0,50,0.00,,,0.00,VWS V13.01,2013-10-25 12:16:00,
2013-10-25 07:21:00,32.9,16.3,0.00,North,353,0.0,0.0,50,0.00,,,0.00,VWS V13.01,2013-10-25 12:21:00,
2013-10-25 07:26:00,32.9,16.3,0.00,North,353,0.0,0.0,50,0.00,,,0.00,VWS V13.01,2013-10-25 12:26:00,
2013-10-25 07:31:00,32.9,16.3,0.00,North,353,0.0,0.0,50,0.00,,,0.00,VWS V13.01,2013-10-25 12:31:00,
2013-10-25 07:36:00,32.9,16.3,0.00,North,353,0.0,0.0,50,0.00,,,0.00,VWS V13.01,2013-10-25 12:36:00,
2013-10-25 07:41:00,32.9,16.3,0.00,North,353,0.0,0.0,50,0.00,,,0.00,VWS V13.01,2013-10-25 12:41:00,
2013-10-25 07:46:00,32.9,16.3,0.00,North,353,0.0,0.0,50,0.00,,,0.00,VWS V13.01,2013-10-25 12:46:00,
2013-10-25 07:51:00,32.9,16.3,0.00,North,353,0.0,0.0,50,0.00,,,0.00,VWS V13.01,2013-10-25 12:51:00,
2013-10-25 07:56:00,33.1,16.5,0.00,North,353,0.0,0.0,50,0.00,,,0.00,VWS V13.01,2013-10-25 12:56:00,
2013-10-25 08:01:00,33.1,16.9,0.00,North,353,0.0,0.0,51,0.00,,,0.00,VWS V13.01,2013-10-25 13:01:00,
2013-10-25 08:06:00,33.1,16.9,0.00,North,353,0.0,0.0,51,0.00,,,0.00,VWS V13.01,2013-10-25 13:06:00,
2013-10-25 08:11:00,33.3,17.1,0.00,North,353,0.0,0.0,51,0.00,,,0.00,VWS V13.01,2013-10-25 13:11:00,
2013-10-25 08:16:00,33.3,17.1,0.00,North,353,0.0,0.0,51,0.00,,,0.00,VWS V13.01,2013-10-25 13:16:00,
2013-10-25 08:21:00,33.4,17.3,0.00,North,353,0.0,0.0,51,0.00,,,0.00,VWS V13.01,2013-10-25 13:21:00,
2013-10-25 08:26:00,33.6,17.4,0.00,North,353,0.0,0.0,51,0.00,,,0.00,VWS V13.01,2013-10-25 13:26:00,
2013-10-25 08:31:00,33.6,17.4,0.00,North,353,0.0,0.0,51,0.00,,,0.00,VWS V13.01,2013-10-25 13:31:00,
2013-10-25 08:36:00,33.8,17.6,0.00,North,353,0.0,0.0,51,0.00,,,0.00,VWS V13.01,2013-10-25 13:36:00,
2013-10-25 08:41:00,33.8,17.6,0.00,North,353,0.0,0.0,51,0.00,,,0.00,VWS V13.01,2013-10-25 13:41:00,
2013-10-25 08:46:00,34.0,17.8,0.00,North,353,0.0,0.0,51,0.00,,,0.00,VWS V13.01,2013-10-25 13:46:00,
2013-10-25 08:51:00,35.1,18.8,0.00,North,353,0.0,0.0,51,0.00,,,0.00,VWS V13.01,2013-10-25 13:51:00,
2013-10-25 08:56:00,36.0,19.6,0.00,North,353,0.0,0.0,51,0.00,,,0.00,VWS V13.01,2013-10-25 13:56:00,
2013-10-25 09:01:00,36.9,20.0,0.00,SSE,166,4.0,4.0,50,0.00,,,0.00,VWS V13.01,2013-10-25 14:01:00,
2013-10-25 09:06:00,37.2,19.4,0.00,SSE,158,2.7,2.7,48,0.00,,,0.00,VWS V13.01,2013-10-25 14:06:00,
2013-10-25 09:11:00,37.6,19.2,0.00,SE,143,2.2,2.2,47,0.00,,,0.00,VWS V13.01,2013-10-25 14:11:00,
2013-10-25 09:16:00,38.1,19.7,0.00,WSW,257,0.0,0.0,47,0.00,,,0.00,VWS V13.01,2013-10-25 14:16:00,
2013-10-25 09:21:00,38.3,18.8,0.00,SSW,200,0.0,2.2,45,0.00,,,0.00,VWS V13.01,2013-10-25 14:21:00,
2013-10-25 09:26:00,38.3,18.3,0.00,West,280,3.1,3.1,44,0.00,,,0.00,VWS V13.01,2013-10-25 14:26:00,
2013-10-25 09:31:00,38.5,18.5,0.00,WNW,294,0.0,2.2,44,0.00,,,0.00,VWS V13.01,2013-10-25 14:31:00,
2013-10-25 09:36:00,38.5,17.9,0.00,West,273,0.0,0.0,43,0.00,,,0.00,VWS V13.01,2013-10-25 14:36:00,
2013-10-25 09:41:00,38.7,17.6,0.00,SSW,193,3.1,4.9,42,0.00,,,0.00,VWS V13.01,2013-10-25 14:41:00,
2013-10-25 09:46:00,38.7,18.1,0.00,SW,222,0.0,0.0,43,0.00,,,0.00,VWS V13.01,2013-10-25 14:46:00,
2013-10-25 09:51:00,38.8,18.3,0.00,SW,221,0.0,2.2,43,0.00,,,0.00,VWS V13.01,2013-10-25 14:51:00,
2013-10-25 09:56:00,39.7,18.5,0.00,SSW,196,4.0,4.0,42,0.00,,,0.00,VWS V13.01,2013-10-25 14:56:00,
2013-10-25 10:01:00,40.3,18.5,0.00,SSW,207,0.0,0.0,41,0.00,,,0.00,VWS V13.01,2013-10-25 15:01:00,
2013-10-25 10:06:00,40.5,18.1,0.00,South,171,4.0,4.0,40,0.00,,,0.00,VWS V13.01,2013-10-25 15:06:00,
2013-10-25 10:11:00,41.0,18.0,0.00,South,187,7.6,8.1,39,0.00,,,0.00,VWS V13.01,2013-10-25 15:11:00,
2013-10-25 10:16:00,40.8,17.8,0.00,South,186,11.0,11.0,39,0.00,,,0.00,VWS V13.01,2013-10-25 15:16:00,
2013-10-25 10:21:00,40.8,17.8,0.00,SE,137,3.6,3.6,39,0.00,,,0.00,VWS V13.01,2013-10-25 15:21:00,
2013-10-25 10:26:00,41.2,14.3,0.00,SSE,160,7.6,7.6,33,0.00,,,0.00,VWS V13.01,2013-10-25 15:26:00,
2013-10-25 10:31:00,41.2,13.6,0.00,WNW,288,4.9,5.4,32,0.00,,,0.00,VWS V13.01,2013-10-25 15:31:00,
2013-10-25 10:36:00,41.2,13.6,0.00,West,277,3.6,3.6,32,0.00,,,0.00,VWS V13.01,2013-10-25 15:36:00,
2013-10-25 10:41:00,41.2,13.6,0.00,South,189,3.6,3.6,32,0.00,,,0.00,VWS V13.01,2013-10-25 15:41:00,
2013-10-25 10:46:00,40.8,13.3,0.00,South,181,4.0,4.0,32,0.00,,,0.00,VWS V13.01,2013-10-25 15:46:00,
2013-10-25 10:51:00,40.6,13.1,0.00,West,267,3.1,3.1,32,0.00,,,0.00,VWS V13.01,2013-10-25 15:51:00,
2013-10-25 10:56:00,40.6,12.4,0.00,WSW,254,0.0,2.7,31,0.00,,,0.00,VWS V13.01,2013-10-25 15:56:00,
2013-10-25 11:01:00,40.8,12.5,0.00,South,174,8.1,8.1,31,0.00,,,0.00,VWS V13.01,2013-10-25 16:01:00,
2013-10-25 11:06:00,41.0,12.7,0.00,West,281,0.0,0.0,31,0.00,,,0.00,VWS V13.01,2013-10-25 16:06:00,
2013-10-25 11:11:00,40.6,12.4,0.00,West,275,3.1,3.1,31,0.00,,,0.00,VWS V13.01,2013-10-25 16:11:00,
2013-10-25 11:16:00,40.6,11.6,0.00,SSW,193,4.0,5.4,30,0.00,,,0.00,VWS V13.01,2013-10-25 16:16:00,
2013-10-25 11:21:00,40.6,12.4,0.00,SSW,193,4.0,5.4,31,0.00,,,0.00,VWS V13.01,2013-10-25 16:21:00,
2013-10-25 11:26:00,40.8,11.8,0.00,SSW,197,6.3,6.3,30,0.00,,,0.00,VWS V13.01,2013-10-25 16:26:00,
2013-10-25 11:31:00,40.6,11.6,0.00,SSW,208,5.8,5.8,30,0.00,,,0.00,VWS V13.01,2013-10-25 16:31:00,
2013-10-25 11:36:00,40.8,11.8,0.00,WNW,287,3.1,3.1,30,0.00,,,0.00,VWS V13.01,2013-10-25 16:36:00,
2013-10-25 11:41:00,41.2,12.1,0.00,SSW,196,8.1,8.1,30,0.00,,,0.00,VWS V13.01,2013-10-25 16:41:00,
2013-10-25 11:46:00,41.5,12.4,0.00,SSW,194,5.8,5.8,30,0.00,,,0.00,VWS V13.01,2013-10-25 16:46:00,
2013-10-25 11:51:00,41.4,12.3,0.00,SE,127,2.7,5.8,30,0.00,,,0.00,VWS V13.01,2013-10-25 16:51:00,
2013-10-25 11:56:00,41.2,11.4,0.00,South,189,7.6,7.6,29,0.00,,,0.00,VWS V13.01,2013-10-25 16:56:00,
2013-10-25 12:01:00,41.5,12.4,0.00,SSW,194,3.6,3.6,30,0.00,,,0.00,VWS V13.01,2013-10-25 17:01:00,
2013-10-25 12:06:00,41.7,12.6,0.00,SSW,200,4.0,5.4,30,0.00,,,0.00,VWS V13.01,2013-10-25 17:06:00,
2013-10-25 12:11:00,41.5,12.4,0.00,WSW,241,3.1,3.1,30,0.00,,,0.00,VWS V13.01,2013-10-25 17:11:00,
2013-10-25 12:16:00,41.4,11.5,0.00,SSW,206,5.4,7.6,29,0.00,,,0.00,VWS V13.01,2013-10-25 17:16:00,
2013-10-25 12:21:00,41.4,11.5,0.00,South,175,8.1,8.1,29,0.00,,,0.00,VWS V13.01,2013-10-25 17:21:00,
2013-10-25 12:26:00,41.5,11.7,0.00,South,189,5.4,5.8,29,0.00,,,0.00,VWS V13.01,2013-10-25 17:26:00,
2013-10-25 12:31:00,41.7,11.8,0.00,SSW,211,4.9,8.7,29,0.00,,,0.00,VWS V13.01,2013-10-25 17:31:00,
2013-10-25 12:36:00,41.7,11.8,0.00,ESE,119,2.7,2.7,29,0.00,,,0.00,VWS V13.01,2013-10-25 17:36:00,
2013-10-25 12:41:00,41.9,12.0,0.00,SSW,207,6.7,6.7,29,0.00,,,0.00,VWS V13.01,2013-10-25 17:41:00,
2013-10-25 12:46:00,41.5,12.4,0.00,South,177,5.8,5.8,30,0.00,,,0.00,VWS V13.01,2013-10-25 17:46:00,
2013-10-25 12:51:00,41.4,12.3,0.00,SSW,204,3.6,4.0,30,0.00,,,0.00,VWS V13.01,2013-10-25 17:51:00,
2013-10-25 12:56:00,41.4,12.3,0.00,South,173,8.1,8.1,30,0.00,,,0.00,VWS V13.01,2013-10-25 17:56:00,
2013-10-25 13:01:00,41.4,12.3,0.00,SW,222,7.2,7.2,30,0.00,,,0.00,VWS V13.01,2013-10-25 18:01:00,
2013-10-25 13:06:00,41.5,12.4,0.00,South,174,0.0,6.3,30,0.00,,,0.00,VWS V13.01,2013-10-25 18:06:00,
2013-10-25 13:11:00,41.5,12.4,0.00,South,183,4.0,5.4,30,0.00,,,0.00,VWS V13.01,2013-10-25 18:11:00,
2013-10-25 13:16:00,41.7,12.6,0.00,SSW,195,0.0,3.1,30,0.00,,,0.00,VWS V13.01,2013-10-25 18:16:00,
2013-10-25 13:21:00,42.1,12.9,0.00,South,183,5.8,5.8,30,0.00,,,0.00,VWS V13.01,2013-10-25 18:21:00,
2013-10-25 13:26:00,42.3,13.1,0.00,SSW,206,8.3,8.7,30,0.00,,,0.00,VWS V13.01,2013-10-25 18:26:00,
2013-10-25 13:31:00,42.4,13.2,0.00,SSW,209,6.3,6.3,30,0.00,,,0.00,VWS V13.01,2013-10-25 18:31:00,
2013-10-25 13:36:00,42.6,13.4,0.00,SSW,193,3.6,7.6,30,0.00,,,0.00,VWS V13.01,2013-10-25 18:36:00,
2013-10-25 13:41:00,42.6,13.4,0.00,SSE,162,3.6,11.0,30,0.00,,,0.00,VWS V13.01,2013-10-25 18:41:00,
2013-10-25 13:46:00,42.8,12.8,0.00,SSE,159,6.3,9.2,29,0.00,,,0.00,VWS V13.01,2013-10-25 18:46:00,
2013-10-25 13:51:00,43.0,13.7,0.00,SSE,152,0.0,0.0,30,0.00,,,0.00,VWS V13.01,2013-10-25 18:51:00,
2013-10-25 13:56:00,42.8,12.8,0.00,SSW,194,15.0,15.0,29,0.00,,,0.00,VWS V13.01,2013-10-25 18:56:00,
2013-10-25 14:01:00,42.8,13.5,0.00,SSW,213,7.2,7.2,30,0.00,,,0.00,VWS V13.01,2013-10-25 19:01:00,
2013-10-25 14:06:00,42.8,12.8,0.00,SSE,160,5.4,5.4,29,0.00,,,0.00,VWS V13.01,2013-10-25 19:06:00,
2013-10-25 14:11:00,43.0,12.9,0.00,South,190,12.3,12.3,29,0.00,,,0.00,VWS V13.01,2013-10-25 19:11:00,
2013-10-25 14:16:00,43.3,13.2,0.00,South,190,5.4,10.1,29,0.00,,,0.00,VWS V13.01,2013-10-25 19:16:00,
2013-10-25 14:21:00,43.5,14.2,0.00,South,182,0.0,0.0,30,0.00,,,0.00,VWS V13.01,2013-10-25 19:21:00,
2013-10-25 14:26:00,43.7,13.5,0.00,SSW,201,5.4,8.7,29,0.00,,,0.00,VWS V13.01,2013-10-25 19:26:00,
2013-10-25 14:31:00,43.9,14.5,0.00,SSW,196,8.7,8.7,30,0.00,,,0.00,VWS V13.01,2013-10-25 19:31:00,
2013-10-25 14:36:00,44.1,14.6,0.00,SW,214,8.7,10.5,30,0.00,,,0.00,VWS V13.01,2013-10-25 19:36:00,
2013-10-25 14:41:00,44.1,14.6,0.00,SSW,192,5.8,11.0,30,0.00,,,0.00,VWS V13.01,2013-10-25 19:41:00,
2013-10-25 14:46:00,44.2,14.8,0.00,South,175,12.3,13.2,30,0.00,,,0.00,VWS V13.01,2013-10-25 19:46:00,
2013-10-25 14:51:00,44.6,15.1,0.00,South,179,5.8,10.5,30,0.00,,,0.00,VWS V13.01,2013-10-25 19:51:00,
2013-10-25 14:56:00,44.6,14.3,0.00,South,182,8.3,8.3,29,0.00,,,0.00,VWS V13.01,2013-10-25 19:56:00,
2013-10-25 15:01:00,44.8,14.5,0.00,SSW,198,7.6,7.6,29,0.00,,,0.00,VWS V13.01,2013-10-25 20:01:00,
2013-10-25 15:06:00,45.1,15.6,0.00,South,179,3.1,3.6,30,0.00,,,0.00,VWS V13.01,2013-10-25 20:06:00,
2013-10-25 15:11:00,45.3,15.7,0.00,South,189,0.0,0.0,30,0.00,,,0.00,VWS V13.01,2013-10-25 20:11:00,
2013-10-25 15:16:00,45.5,15.9,0.00,SSW,194,3.6,6.3,30,0.00,,,0.00,VWS V13.01,2013-10-25 20:16:00,
2013-10-25 15:21:00,45.9,16.2,0.00,SSW,195,6.3,10.5,30,0.00,,,0.00,VWS V13.01,2013-10-25 20:21:00,
2013-10-25 15:26:00,46.0,16.4,0.00,SSW,198,5.8,5.8,30,0.00,,,0.00,VWS V13.01,2013-10-25 20:26:00,
2013-10-25 15:31:00,46.0,16.4,0.00,SSW,198,5.4,5.4,30,0.00,,,0.00,VWS V13.01,2013-10-25 20:31:00,
2013-10-25 15:36:00,46.2,16.5,0.00,South,180,5.4,11.0,30,0.00,,,0.00,VWS V13.01,2013-10-25 20:36:00,
2013-10-25 15:41:00,46.4,15.9,0.00,SSW,198,4.9,7.6,29,0.00,,,0.00,VWS V13.01,2013-10-25 20:41:00,
2013-10-25 15:46:00,46.6,16.0,0.00,South,178,2.7,5.8,29,0.00,,,0.00,VWS V13.01,2013-10-25 20:46:00,
2013-10-25 15:51:00,46.6,16.0,0.00,SSW,195,10.5,10.5,29,0.00,,,0.00,VWS V13.01,2013-10-25 20:51:00,
2013-10-25 15:56:00,46.8,16.2,0.00,WSW,246,4.0,4.9,29,0.00,,,0.00,VWS V13.01,2013-10-25 20:56:00,
2013-10-25 16:01:00,46.9,16.4,0.00,South,181,5.8,7.6,29,0.00,,,0.00,VWS V13.01,2013-10-25 21:01:00,
2013-10-25 16:06:00,46.9,17.1,0.00,South,179,5.4,5.4,30,0.00,,,0.00,VWS V13.01,2013-10-25 21:06:00,
2013-10-25 16:11:00,47.1,17.3,0.00,SSE,160,3.1,5.8,30,0.00,,,0.00,VWS V13.01,2013-10-25 21:11:00,
2013-10-25 16:16:00,47.3,17.5,0.00,SE,140,0.0,0.0,30,0.00,,,0.00,VWS V13.01,2013-10-25 21:16:00,
2013-10-25 16:21:00,47.7,17.8,0.00,SSW,205,8.3,8.3,30,0.00,,,0.00,VWS V13.01,2013-10-25 21:21:00,
2013-10-25 16:26:00,47.8,17.1,0.00,South,187,9.6,10.5,29,0.00,,,0.00,VWS V13.01,2013-10-25 21:26:00,
2013-10-25 16:31:00,48.0,17.3,0.00,South,181,6.3,6.3,29,0.00,,,0.00,VWS V13.01,2013-10-25 21:31:00,
2013-10-25 16:36:00,48.2,17.5,0.00,SSE,165,5.8,8.3,29,0.00,,,0.00,VWS V13.01,2013-10-25 21:36:00,
2013-10-25 16:41:00,48.4,17.6,0.00,SW,216,13.2,13.2,29,0.00,,,0.00,VWS V13.01,2013-10-25 21:41:00,
2013-10-25 16:46:00,48.4,17.6,0.00,SSW,199,5.8,8.3,29,0.00,,,0.00,VWS V13.01,2013-10-25 21:46:00,
2013-10-25 16:51:00,48.4,17.6,0.00,SSW,192,0.0,4.9,29,0.00,,,0.00,VWS V13.01,2013-10-25 21:51:00,
2013-10-25 16:56:00,48.4,17.6,0.00,South,182,3.1,4.0,29,0.00,,,0.00,VWS V13.01,2013-10-25 21:56:00,
2013-10-25 17:01:00,48.4,17.6,0.00,SSW,194,5.4,5.4,29,0.00,,,0.00,VWS V13.01,2013-10-25 22:01:00,
2013-10-25 17:06:00,48.4,17.6,0.00,SSW,197,8.1,10.5,29,0.00,,,0.00,VWS V13.01,2013-10-25 22:06:00,
2013-10-25 17:11:00,48.4,17.6,0.00,SSW,198,8.1,8.1,29,0.00,,,0.00,VWS V13.01,2013-10-25 22:11:00,
2013-10-25 17:16:00,48.2,17.5,0.00,SSW,194,3.1,3.6,29,0.00,,,0.00,VWS V13.01,2013-10-25 22:16:00,
2013-10-25 17:21:00,48.2,17.5,0.00,SSW,202,3.1,4.0,29,0.00,,,0.00,VWS V13.01,2013-10-25 22:21:00,
2013-10-25 17:26:00,48.2,17.5,0.00,SSW,206,3.1,6.3,29,0.00,,,0.00,VWS V13.01,2013-10-25 22:26:00,
2013-10-25 17:31:00,48.4,17.6,0.00,SW,224,3.1,4.9,29,0.00,,,0.00,VWS V13.01,2013-10-25 22:31:00,
2013-10-25 17:36:00,48.4,17.6,0.00,West,260,4.9,4.9,29,0.00,,,0.00,VWS V13.01,2013-10-25 22:36:00,
2013-10-25 17:41:00,48.4,17.6,0.00,WSW,237,5.8,6.3,29,0.00,,,0.00,VWS V13.01,2013-10-25 22:41:00,
2013-10-25 17:46:00,48.4,17.6,0.00,South,190,6.3,6.3,29,0.00,,,0.00,VWS V13.01,2013-10-25 22:46:00,
2013-10-25 17:51:00,48.4,17.6,0.00,SSW,196,3.6,3.6,29,0.00,,,0.00,VWS V13.01,2013-10-25 22:51:00,
2013-10-25 17:56:00,48.4,17.6,0.00,South,189,6.7,6.7,29,0.00,,,0.00,VWS V13.01,2013-10-25 22:56:00,
2013-10-25 18:01:00,48.4,17.6,0.00,South,182,5.4,5.8,29,0.00,,,0.00,VWS V13.01,2013-10-25 23:01:00,
2013-10-25 18:06:00,48.4,18.4,0.00,SSW,196,8.7,8.7,30,0.00,,,0.00,VWS V13.01,2013-10-25 23:06:00,
2013-10-25 18:11:00,48.4,17.6,0.00,SSW,192,3.6,3.6,29,0.00,,,0.00,VWS V13.01,2013-10-25 23:11:00,
2013-10-25 18:16:00,48.4,17.6,0.00,SSW,203,3.1,3.1,29,0.00,,,0.00,VWS V13.01,2013-10-25 23:16:00,
2013-10-25 18:21:00,48.4,18.4,0.00,SSW,196,3.6,3.6,30,0.00,,,0.00,VWS V13.01,2013-10-25 23:21:00,
2013-10-25 18:26:00,48.4,18.4,0.00,SSW,197,4.9,4.9,30,0.00,,,0.00,VWS V13.01,2013-10-25 23:26:00,
2013-10-25 18:31:00,48.6,18.5,0.00,SSW,199,3.1,3.6,30,0.00,,,0.00,VWS V13.01,2013-10-25 23:31:00,
2013-10-25 18:36:00,48.6,18.5,0.00,SSW,195,6.3,6.3,30,0.00,,,0.00,VWS V13.01,2013-10-25 23:36:00,
2013-10-25 18:41:00,48.7,18.7,0.00,West,263,0.0,4.0,30,0.00,,,0.00,VWS V13.01,2013-10-25 23:41:00,
2013-10-25 18:46:00,48.7,18.7,0.00,South,180,5.8,5.8,30,0.00,,,0.00,VWS V13.01,2013-10-25 23:46:00,
2013-10-25 18:51:00,49.1,19.0,0.00,South,190,4.0,5.8,30,0.00,,,0.00,VWS V13.01,2013-10-25 23:51:00,
2013-10-25 18:56:00,49.1,19.0,0.00,SSW,212,0.0,0.0,30,0.00,,,0.00,VWS V13.01,2013-10-25 23:56:00,
2013-10-25 19:01:00,49.3,19.2,0.00,SSW,205,3.1,4.9,30,0.00,,,0.00,VWS V13.01,2013-10-26 00:01:00,
2013-10-25 19:06:00,49.3,19.2,0.00,South,186,0.0,0.0,30,0.00,,,0.00,VWS V13.01,2013-10-26 00:06:00,
2013-10-25 19:11:00,49.5,19.3,0.00,East,101,2.7,4.0,30,0.00,,,0.00,VWS V13.01,2013-10-26 00:11:00,
2013-10-25 19:16:00,49.8,19.6,0.00,WSW,241,0.0,0.0,30,0.00,,,0.00,VWS V13.01,2013-10-26 00:16:00,
2013-10-25 19:21:00,50.0,19.8,0.00,SSE,148,0.0,2.7,30,0.00,,,0.00,VWS V13.01,2013-10-26 00:21:00,
2013-10-25 19:26:00,50.2,20.0,0.00,West,262,0.0,4.0,30,0.00,,,0.00,VWS V13.01,2013-10-26 00:26:00,
2013-10-25 19:31:00,50.2,20.0,0.00,South,183,2.7,4.5,30,0.00,,,0.00,VWS V13.01,2013-10-26 00:31:00,
2013-10-25 19:36:00,50.5,20.3,0.00,WSW,244,0.0,3.1,30,0.00,,,0.00,VWS V13.01,2013-10-26 00:36:00,
2013-10-25 19:41:00,50.7,20.4,0.00,West,264,2.7,2.7,30,0.00,,,0.00,VWS V13.01,2013-10-26 00:41:00,
2013-10-25 19:46:00,50.9,20.6,0.00,SSW,205,6.3,6.3,30,0.00,,,0.00,VWS V13.01,2013-10-26 00:46:00,
2013-10-25 19:51:00,51.1,20.8,0.00,SSE,159,2.7,2.7,30,0.00,,,0.00,VWS V13.01,2013-10-26 00:51:00,
2013-10-25 19:56:00,51.3,20.9,0.00,SSE,150,4.9,4.9,30,0.00,,,0.00,VWS V13.01,2013-10-26 00:56:00,
2013-10-25 20:01:00,51.4,21.1,0.00,NNW,341,2.7,2.7,30,0.00,,,0.00,VWS V13.01,2013-10-26 01:01:00,
2013-10-25 20:06:00,51.6,21.2,0.00,SW,234,3.1,3.1,30,0.00,,,0.00,VWS V13.01,2013-10-26 01:06:00,
2013-10-25 20:11:00,51.6,21.2,0.00,SSE,152,0.0,3.1,30,0.00,,,0.00,VWS V13.01,2013-10-26 01:11:00,
2013-10-25 20:16:00,51.8,20.6,0.00,SE,146,3.1,3.6,29,0.00,,,0.00,VWS V13.01,2013-10-26 01:16:00,
2013-10-25 20:21:00,52.0,20.7,0.00,SSW,205,5.4,5.4,29,0.00,,,0.00,VWS V13.01,2013-10-26 01:21:00,
2013-10-25 20:26:00,52.0,20.7,0.00,West,275,0.0,2.7,29,0.00,,,0.00,VWS V13.01,2013-10-26 01:26:00,
2013-10-25 20:31:00,52.2,20.9,0.00,SSW,212,0.0,4.0,29,0.00,,,0.00,VWS V13.01,2013-10-26 01:31:00,
2013-10-25 20:36:00,52.2,20.9,0.00,NW,318,3.1,3.1,29,0.00,,,0.00,VWS V13.01,2013-10-26 01:36:00,
2013-10-25 20:41:00,52.2,20.9,0.00,SSW,203,2.7,2.7,29,0.00,,,0.00,VWS V13.01,2013-10-26 01:41:00,
2013-10-25 20:46:00,52.2,20.9,0.00,SSW,200,2.7,3.1,29,0.00,,,0.00,VWS V13.01,2013-10-26 01:46:00,
2013-10-25 20:51:00,52.3,21.0,0.00,WSW,243,0.0,0.0,29,0.00,,,0.00,VWS V13.01,2013-10-26 01:51:00,
2013-10-25 20:56:00,52.5,21.2,0.00,West,266,3.1,5.8,29,0.00,,,0.00,VWS V13.01,2013-10-26 01:56:00,
2013-10-25 21:01:00,52.7,21.4,0.00,WSW,251,4.0,5.8,29,0.00,,,0.00,VWS V13.01,2013-10-26 02:01:00,
2013-10-25 21:06:00,53.1,21.7,0.00,West,272,2.7,3.1,29,0.00,,,0.00,VWS V13.01,2013-10-26 02:06:00,
2013-10-25 21:11:00,53.1,21.7,0.00,West,266,4.0,5.4,29,0.00,,,0.00,VWS V13.01,2013-10-26 02:11:00,
2013-10-25 21:16:00,53.2,21.0,0.00,West,279,5.4,6.3,28,0.00,,,0.00,VWS V13.01,2013-10-26 02:16:00,
2013-10-25 21:21:00,53.2,21.8,0.00,NE,44,3.6,4.9,29,0.00,,,0.00,VWS V13.01,2013-10-26 02:21:00,
2013-10-25 21:26:00,53.1,21.7,0.00,West,264,3.1,3.1,29,0.00,,,0.00,VWS V13.01,2013-10-26 02:26:00,
2013-10-25 21:31:00,53.2,21.8,0.00,WSW,245,2.7,2.7,29,0.00,,,0.00,VWS V13.01,2013-10-26 02:31:00,
2013-10-25 21:36:00,53.2,21.8,0.00,WNW,286,2.7,3.6,29,0.00,,,0.00,VWS V13.01,2013-10-26 02:36:00,
2013-10-25 21:41:00,53.2,21.8,0.00,South,191,2.7,3.1,29,0.00,,,0.00,VWS V13.01,2013-10-26 02:41:00,
2013-10-25 21:46:00,53.4,22.0,0.00,West,271,3.6,3.6,29,0.00,,,0.00,VWS V13.01,2013-10-26 02:46:00,
2013-10-25 21:51:00,53.4,22.0,0.00,West,278,0.0,0.0,29,0.00,,,0.00,VWS V13.01,2013-10-26 02:51:00,
2013-10-25 21:56:00,53.4,22.0,0.00,NNW,328,4.0,8.3,29,0.00,,,0.00,VWS V13.01,2013-10-26 02:56:00,
2013-10-25 22:01:00,53.4,22.0,0.00,WSW,248,2.2,2.7,29,0.00,,,0.00,VWS V13.01,2013-10-26 03:01:00,
2013-10-25 22:06:00,53.6,22.1,0.00,West,280,4.0,4.0,29,0.00,,,0.00,VWS V13.01,2013-10-26 03:06:00,
2013-10-25 22:11:00,53.8,22.3,0.00,West,271,0.0,2.7,29,0.00,,,0.00,VWS V13.01,2013-10-26 03:11:00,
2013-10-25 22:16:00,53.8,22.3,0.00,West,260,4.0,4.0,29,0.00,,,0.00,VWS V13.01,2013-10-26 03:16:00,
2013-10-25 22:21:00,53.8,22.3,0.00,WSW,249,3.6,4.0,29,0.00,,,0.00,VWS V13.01,2013-10-26 03:21:00,
2013-10-25 22:26:00,53.8,22.3,0.00,West,274,3.6,3.6,29,0.00,,,0.00,VWS V13.01,2013-10-26 03:26:00,
2013-10-25 22:31:00,54.0,22.5,0.00,West,268,3.6,3.6,29,0.00,,,0.00,VWS V13.01,2013-10-26 03:31:00,
2013-10-25 22:36:00,53.8,22.3,0.00,West,263,0.0,3.1,29,0.00,,,0.00,VWS V13.01,2013-10-26 03:36:00,
2013-10-25 22:41:00,53.6,22.1,0.00,West,281,4.0,4.0,29,0.00,,,0.00,VWS V13.01,2013-10-26 03:41:00,
2013-10-25 22:46:00,53.4,22.8,0.00,West,278,2.2,4.0,30,0.00,,,0.00,VWS V13.01,2013-10-26 03:46:00,
2013-10-25 22:51:00,53.2,22.6,0.00,NW,314,0.0,2.7,30,0.00,,,0.00,VWS V13.01,2013-10-26 03:51:00,
2013-10-25 22:56:00,53.1,22.5,0.00,West,264,0.0,2.7,30,0.00,,,0.00,VWS V13.01,2013-10-26 03:56:00,
2013-10-25 23:01:00,52.9,22.3,0.00,WNW,288,2.7,4.0,30,0.00,,,0.00,VWS V13.01,2013-10-26 04:01:00,
2013-10-25 23:06:00,52.5,22.8,0.00,WNW,283,0.0,0.0,31,0.00,,,0.00,VWS V13.01,2013-10-26 04:06:00,
2013-10-25 23:11:00,52.2,22.5,0.00,WNW,283,2.2,2.7,31,0.00,,,0.00,VWS V13.01,2013-10-26 04:11:00,
2013-10-25 23:16:00,52.0,22.3,0.00,West,264,0.0,0.0,31,0.00,,,0.00,VWS V13.01,2013-10-26 04:16:00,
2013-10-25 23:21:00,51.8,22.9,0.00,West,268,0.0,0.0,32,0.00,,,0.00,VWS V13.01,2013-10-26 04:21:00,
2013-10-25 23:26:00,51.6,22.7,0.00,West,268,0.0,0.0,32,0.00,,,0.00,VWS V13.01,2013-10-26 04:26:00,
2013-10-25 23:31:00,51.3,22.4,0.00,West,268,0.0,0.0,32,0.00,,,0.00,VWS V13.01,2013-10-26 04:31:00,
2013-10-25 23:36:00,50.9,22.8,0.00,West,268,0.0,0.0,33,0.00,,,0.00,VWS V13.01,2013-10-26 04:36:00,
2013-10-25 23:41:00,50.5,22.5,0.00,West,268,0.0,0.0,33,0.00,,,0.00,VWS V13.01,2013-10-26 04:41:00,
2013-10-25 23:46:00,50.4,23.1,0.00,West,268,0.0,0.0,34,0.00,,,0.00,VWS V13.01,2013-10-26 04:46:00,
2013-10-25 23:51:00,50.4,23.1,0.00,West,268,0.0,0.0,34,0.00,,,0.00,VWS V13.01,2013-10-26 04:51:00,
2013-10-25 23:56:00,50.2,22.9,0.00,West,268,0.0,0.0,34,0.00,,,0.00,VWS V13.01,2013-10-26 04:56:00,